Location: Hradec Kralove
(50.2170°N, 15.8330°E)
Time: 18:12:24
(UTC+02:00)

TIGRISAT - Visible Passes

Search period start: 14 May 2026 00:00
Search period end: 24 May 2026 00:00
Orbit: 579 x 648 km, 97.8° (Epoch: 14 May)

Date Brightness Start Highest point End Pass type
(mag) Time Alt. Az. Time Alt. Az. Time Alt. Az.
14 May ? 02:43:47 10° ESE 02:47:22 25° ENE 02:50:57 10° N visible
14 May ? 04:18:52 10° S 04:23:09 45° W 04:27:24 10° NNW visible
15 May ? 02:58:34 10° SE 03:02:31 33° ENE 03:06:27 10° N visible
16 May ? 03:13:29 10° SE 03:17:42 44° ENE 03:21:53 10° N visible
17 May ? 03:28:32 10° SSE 03:32:54 61° ENE 03:37:14 10° N visible
18 May ? 02:10:46 10° E 02:12:48 13° ENE 02:14:51 10° NNE visible
18 May ? 03:43:42 10° SSE 03:48:09 85° ENE 03:52:31 10° NNW visible
19 May ? 02:25:01 10° E 02:27:52 17° ENE 02:30:43 10° NNE visible
19 May ? 03:59:00 10° S 04:03:24 70° WSW 04:07:46 10° NNW visible
20 May ? 02:39:33 10° ESE 02:42:58 23° ENE 02:46:21 10° NNE visible
20 May ? 04:14:25 10° S 04:18:42 49° W 04:22:56 10° NNW visible
21 May ? 02:54:16 10° SE 02:58:06 30° ENE 03:01:52 10° N visible
22 May ? 03:09:09 10° SE 03:13:14 40° ENE 03:17:17 10° N visible
23 May ? 03:24:09 10° SSE 03:28:25 55° ENE 03:32:39 10° N visible
